Temperature
22 22 21 21 23 25 28 30 30 30 30 30 29 29 28 27 26 24 23 23 22 22 21 21 21 20 20 20 20 19 19 19 19 19 19 19 19 19 19 19 19 19 19 19 19 19 19 19 19
22 21 22 24 25 27 28 30 30 30 30 30 29 28 27 26 25 24 23 23 22 22 21 21 21 20 20 20 20 19 19 19 19 19 19 19 19 19 19 19 19 19 19 19 19 19 19 19 19
22 23 24 26 28 29 29 31 31 31 30 30 29 28 27 26 25 24 23 23 22 22 21 21 21 21 20 20 20 20 20 19 19 19 20 20 19 19 19 19 19 19 19 19 19 19 19 19 19
22 24 26 28 29 31 31 31 32 31 30 30 29 27 26 25 24 23 23 23 22 21 21 21 21 21 20 20 20 20 20 20 19 19 19 19 19 19 19 19 19 19 19 19 19 19 19 19 19
24 25 27 28 30 32 32 32 31 31 30 29 28 27 25 25 24 24 23 23 22 22 21 21 21 21 21 20 20 20 20 20 20 20 20 19 19 19 19 19 19 19 19 19 19 19 19 19 19
25 26 28 29 31 32 32 32 31 31 30 29 28 27 25 24 24 24 23 23 23 22 22 22 21 21 21 21 20 20 20 20 20 20 20 20 19 19 19 19 19 19 19 19 19 19 19 19 19
27 27 29 30 31 31 32 31 31 31 30 29 28 27 25 25 24 24 23 23 23 22 21 21 21 21 21 21 21 20 20 20 20 20 20 20 19 19 19 19 19 19 19 19 19 19 19 19 19
29 29 29 30 31 31 32 31 31 30 30 29 28 27 25 25 24 24 23 23 23 22 22 21 21 21 21 21 20 20 20 20 20 20 20 19 19 19 19 19 19 19 19 19 19 19 19 19 19
30 29 29 30 31 31 32 31 31 30 29 28 28 27 25 25 24 24 24 23 23 22 22 22 21 21 21 21 20 20 20 20 20 20 19 19 19 19 19 19 19 19 19 19 19 19 19 19 19
29 28 30 32 33 32 32 32 31 30 29 28 27 26 26 25 25 24 24 23 22 22 22 22 21 21 21 20 20 20 20 20 20 20 19 19 19 19 19 19 19 19 19 19 19 19 19 19 19
31 30 32 32 33 33 32 32 31 30 29 28 27 26 26 25 25 25 24 23 22 22 22 22 21 21 21 20 20 20 20 20 20 20 19 19 19 19 19 19 19 19 19 19 19 19 19 19 19
32 32 33 33 32 33 32 32 31 30 29 29 28 27 26 26 25 25 24 23 22 22 22 21 21 21 21 21 20 20 20 20 20 20 19 19 19 19 19 19 19 19 19 19 19 19 19 19 19
34 33 33 33 33 33 32 32 31 30 29 29 28 27 26 26 25 24 24 23 22 22 21 21 21 20 20 20 20 20 20 20 20 19 19 19 19 19 19 18 18 18 19 18 18 18 18 19 19
34 34 33 33 33 32 32 31 31 30 30 29 28 27 26 26 25 24 24 23 22 22 21 21 21 20 20 20 20 20 20 20 19 19 19 19 19 19 19 18 18 18 18 18 18 18 18 18 18
34 33 33 33 33 32 32 30 31 30 30 29 28 27 27 26 25 24 24 23 22 22 21 21 21 20 20 20 20 20 20 19 19 19 19 19 19 19 19 18 18 18 18 18 18 19 19 18 18
33 32 31 32 33 33 32 29 31 30 30 29 28 28 27 26 25 25 24 23 22 22 21 21 21 20 20 20 20 20 20 19 19 19 19 19 19 19 18 18 18 18 18 18 18 18 18 18 18
31 30 31 32 33 33 32 30 31 31 31 30 29 28 27 26 25 25 24 23 22 22 21 21 21 20 20 20 20 20 20 19 19 19 19 19 19 19 19 18 18 18 18 18 18 18 18 18 18
30 31 32 32 33 33 32 30 31 31 31 30 30 29 27 26 26 25 24 23 22 21 21 21 21 20 20 20 20 20 19 19 19 19 19 19 19 19 18 18 18 18 18 18 18 18 18 18 18
32 33 32 32 34 33 31 30 30 31 31 31 30 29 28 27 26 25 24 23 22 22 21 21 21 20 20 20 20 20 19 19 19 19 19 19 19 19 18 18 18 18 18 18 18 18 18 18 18
33 32 32 33 34 33 31 30 31 31 31 31 30 29 28 27 26 25 24 24 23 22 21 21 21 20 20 20 20 20 19 19 19 19 19 19 19 18 18 18 18 18 18 18 18 18 18 18 18
33 32 33 33 33 33 31 29 30 31 31 31 30 30 29 28 26 25 25 24 23 22 21 21 21 20 20 20 20 19 19 19 19 19 19 19 18 18 18 18 18 18 18 18 18 18 18 18 18
32 34 34 33 32 31 31 28 29 30 31 31 30 30 29 28 27 26 25 24 23 22 21 21 21 20 20 20 20 19 19 19 19 19 19 18 18 18 18 18 18 18 18 18 18 18 18 18 18
33 34 34 33 31 31 30 29 28 30 29 30 30 30 30 29 28 26 25 24 23 23 22 21 20 20 20 20 19 19 19 19 19 18 18 18 18 18 18 18 18 18 18 18 18 18 18 18 18
34 34 33 32 31 29 30 29 28 29 30 30 31 30 29 29 28 27 26 24 24 23 22 21 20 20 20 19 19 19 19 19 18 18 18 18 18 18 18 18 18 18 18 18 18 17 18 18 18
34 32 31 30 29 29 30 30 29 31 31 31 31 30 29 29 28 27 25 24 24 23 22 21 20 20 20 19 19 19 19 18 18 18 18 18 18 17 17 17 17 17 17 17 17 17 17 17 18
34 33 30 29 29 29 30 29 30 31 31 32 31 30 29 28 28 27 25 24 23 23 22 21 20 20 19 19 19 19 19 18 18 18 18 18 18 17 17 17 17 17 17 17 17 17 17 17 17
33 33 33 32 31 30 29 29 30 30 31 31 31 30 30 29 28 27 26 25 24 23 22 21 20 20 19 19 19 19 18 18 18 18 18 17 17 17 17 17 17 17 17 17 17 17 17 17 17
34 34 33 32 30 29 29 29 28 28 30 30 30 29 29 28 28 27 26 25 24 23 22 21 20 20 19 19 19 19 18 18 18 18 17 17 17 17 17 17 17 17 17 16 16 16 16 16 16
33 33 32 32 32 30 29 28 30 29 30 30 30 28 28 28 27 27 26 25 24 23 22 21 20 20 19 19 19 18 18 18 17 17 17 17 17 17 17 17 17 16 16 16 16 16 16 16 16
33 32 32 31 30 31 30 28 31 30 30 30 30 29 28 28 27 26 25 25 24 23 22 21 20 20 19 19 19 18 18 18 17 17 17 17 17 16 16 16 16 16 16 16 16 16 16 16 16
Wind_Speed
9 11 9 5 4 2 7 10 11 12 12 12 12 12 15 14 9 7 5 9 10 11 11 12 11 9 7 6 6 6 5 5 4 5 5 5 5 6 6 6 6 6 6 7 8 8 7 8 9
9 10 7 5 3 4 9 11 12 12 11 11 12 15 15 13 11 8 7 8 10 12 11 12 11 9 7 6 6 6 5 5 5 5 5 5 5 6 6 6 6 6 6 6 7 7 7 8 9
11 11 6 4 1 7 11 10 11 12 11 11 13 14 12 10 11 8 8 9 10 11 11 12 11 9 7 6 6 5 5 4 5 5 5 5 5 5 5 5 5 6 6 6 7 7 6 7 8
7 6 5 3 6 10 10 10 11 12 11 11 12 10 11 11 9 9 9 9 9 11 11 11 11 9 7 6 6 5 5 5 5 5 5 4 4 5 5 5 5 6 6 6 6 6 6 7 7
8 4 4 2 8 11 11 11 11 11 12 13 14 13 12 12 12 10 9 9 9 10 10 10 11 9 7 7 7 6 6 6 5 5 5 4 4 5 6 6 6 6 5 5 5 6 6 7 8
4 4 2 5 10 10 11 12 12 13 12 12 12 13 10 10 10 9 9 9 9 10 10 10 10 10 8 9 9 8 7 6 6 5 5 4 5 6 6 6 6 6 5 5 5 5 6 6 8
7 4 3 5 8 10 11 12 11 11 12 10 11 11 9 10 9 8 9 8 9 10 9 9 9 8 8 9 10 8 8 7 6 6 5 4 4 6 6 6 6 6 5 5 5 5 6 7 8
5 3 3 5 8 9 10 11 10 12 11 9 9 9 8 9 8 9 8 8 9 9 8 8 8 7 7 8 9 8 8 8 6 5 4 3 4 5 7 7 7 6 5 5 5 6 6 8 8
4 3 4 6 7 8 9 10 9 11 12 13 14 13 12 11 9 9 9 9 9 9 8 7 7 6 6 8 9 8 7 6 5 4 3 2 2 4 6 6 8 6 5 5 5 6 6 7 8
0 2 3 4 6 8 8 8 8 8 11 11 13 13 11 11 10 9 10 10 10 8 8 8 8 7 6 7 6 5 5 5 4 4 2 2 3 4 6 7 6 5 4 4 5 5 5 6 5
1 2 3 3 5 6 7 8 8 9 9 9 10 11 10 10 9 10 10 11 9 8 8 8 9 7 7 6 5 3 3 4 4 5 4 5 4 4 6 4 4 3 3 2 3 3 2 3 3
2 1 2 3 4 6 6 6 8 10 9 10 11 11 10 10 9 10 10 10 9 9 9 8 8 8 7 6 4 4 4 3 4 5 5 5 3 4 4 3 2 2 2 1 1 1 1 2 3
1 0 1 2 4 6 6 6 7 9 9 11 12 10 9 9 10 9 10 10 10 8 9 8 8 7 6 5 4 5 4 5 5 4 5 5 4 4 4 3 2 1 2 2 2 1 1 2 3
3 2 1 1 5 6 6 4 5 7 9 10 10 9 9 9 9 9 9 10 9 8 7 7 7 7 5 4 3 3 4 4 4 4 6 5 5 4 3 3 2 2 2 2 2 1 2 3 3
7 4 1 1 3 5 6 3 4 6 9 9 9 9 9 8 9 8 9 9 9 8 6 6 7 6 5 4 3 3 4 4 4 4 5 5 5 4 3 2 3 3 2 3 2 3 3 3 4
8 5 3 3 2 4 3 4 4 6 7 8 8 9 8 7 8 9 10 8 8 8 7 5 6 7 5 4 3 3 4 4 4 4 4 5 5 4 3 3 3 3 3 3 3 3 4 4 3
6 6 5 2 2 3 3 5 5 6 7 7 8 9 9 8 8 9 10 9 8 8 7 7 5 6 5 4 3 3 4 4 4 4 4 4 4 4 3 3 3 3 3 4 4 5 4 4 3
7 6 4 2 2 1 3 4 4 5 6 7 8 9 10 9 9 9 9 10 9 8 7 6 5 5 3 3 3 2 3 3 4 4 4 4 4 5 3 3 3 3 4 4 4 4 3 2 2
9 6 5 3 2 1 2 4 4 4 5 7 8 10 10 10 10 10 10 10 9 9 7 6 4 4 3 2 2 2 2 3 3 3 4 4 5 5 4 4 4 3 3 3 2 2 2 2 2
8 7 6 2 1 3 1 3 5 6 7 6 8 9 10 11 12 11 10 9 9 9 7 6 5 4 3 2 1 2 2 2 3 4 4 5 5 4 4 4 3 3 3 3 2 2 2 2 2
6 8 7 4 3 4 1 4 5 6 7 6 6 9 11 12 12 11 10 9 10 9 7 6 5 5 3 2 2 2 2 2 3 4 4 4 4 4 4 4 3 3 2 2 2 2 2 1 1
7 8 8 6 4 4 4 4 5 5 5 6 6 8 11 12 13 12 12 10 8 9 8 8 6 5 3 2 2 2 3 3 3 3 3 3 3 4 4 3 3 3 3 3 2 3 2 1 1
8 9 8 7 5 6 4 3 3 5 6 6 7 7 9 11 12 11 13 11 10 10 10 8 7 5 4 3 3 3 3 3 3 2 3 3 3 4 3 3 3 3 2 3 3 3 3 2 2
9 10 9 7 5 6 7 5 3 3 4 6 7 8 9 10 11 11 12 11 9 10 10 9 7 5 4 3 3 3 3 2 3 3 3 2 2 3 3 3 3 3 3 2 3 2 3 3 3
10 8 6 5 5 5 5 3 2 3 5 7 9 10 11 10 11 11 11 11 9 9 10 10 8 6 5 4 3 2 2 3 3 2 2 2 2 2 3 3 2 2 2 2 2 2 2 2 3
10 9 7 6 5 4 3 1 3 3 2 5 9 10 11 10 11 11 11 10 10 10 10 10 9 6 5 4 3 2 2 2 2 2 1 2 2 2 3 2 2 2 2 2 2 2 1 1 2
10 9 10 9 8 5 2 1 2 3 3 4 5 8 10 10 11 12 12 12 11 10 10 10 9 7 6 5 4 3 2 2 2 2 2 2 2 2 3 2 2 1 1 2 2 2 2 2 2
11 10 7 7 5 6 3 1 1 5 6 6 4 5 6 7 9 10 10 11 11 11 10 10 9 7 5 5 4 4 2 2 2 2 3 3 3 3 2 2 1 1 1 1 1 2 2 2 2
9 11 8 7 7 7 4 1 4 3 4 5 7 6 6 7 6 8 9 9 10 11 11 10 9 7 6 5 4 4 3 2 2 2 2 3 2 2 2 1 1 1 1 1 1 2 1 2 3
9 10 10 8 8 9 6 1 1 2 3 5 5 6 7 7 7 7 9 9 9 10 10 9 9 8 7 6 5 4 3 3 3 3 2 2 1 1 1 1 1 1 1 1 2 3 2 2 2
Wind_Direction
201 210 216 234 244 247 46 48 50 54 52 52 52 57 55 48 54 76 80 72 82 89 100 106 105 102 99 96 99 101 90 88 87 102 104 103 106 119 127 131 134 137 143 149 151 153 162 168 174
221 220 228 243 265 50 54 53 54 56 62 63 62 63 62 60 71 84 80 74 86 93 96 100 104 102 103 104 104 100 91 86 95 104 104 106 114 121 129 134 138 138 140 144 149 157 170 176 177
247 246 253 243 8 58 61 57 62 66 64 70 68 59 56 61 68 80 90 84 87 93 95 102 106 107 109 111 110 105 102 98 104 105 102 105 115 125 132 134 139 142 146 152 157 164 174 179 183
244 247 245 268 52 64 68 66 65 68 63 67 74 69 63 67 80 94 96 91 91 99 102 109 114 114 116 121 120 120 118 115 114 113 106 108 120 133 140 140 138 140 146 152 158 166 174 180 189
244 267 261 63 69 70 68 68 68 67 64 68 74 82 78 76 89 99 94 93 90 96 105 112 118 115 112 119 126 130 130 127 122 121 114 118 132 144 144 137 135 137 144 149 160 174 187 193 198
267 270 293 65 71 72 69 69 67 68 73 78 86 86 85 90 87 89 87 86 87 95 104 113 116 117 114 112 121 129 131 131 127 125 122 129 141 144 140 139 144 147 151 159 170 185 199 202 205
247 279 344 54 74 69 70 70 67 70 66 67 87 91 94 93 92 91 87 88 87 95 103 114 119 121 123 119 117 124 128 127 124 125 124 130 144 150 152 152 153 154 163 176 190 196 201 206 209
276 317 345 55 73 74 78 76 67 72 69 66 71 86 103 105 107 99 89 86 86 88 91 103 120 122 128 126 130 131 130 124 123 122 124 134 151 165 167 159 160 162 169 184 200 201 202 206 207
297 338 18 52 70 79 82 87 83 81 77 66 69 86 105 116 115 106 93 81 77 78 82 82 87 93 110 113 119 135 139 133 131 129 141 147 162 161 167 143 154 165 177 194 208 207 200 202 203
320 4 36 38 62 88 87 81 86 84 80 79 81 91 105 117 116 106 95 86 80 78 79 73 67 69 73 82 108 123 118 120 115 92 90 101 85 113 113 125 146 162 174 196 207 211 206 211 199
160 351 3 35 55 79 92 92 93 87 87 94 103 108 108 107 108 103 95 91 86 80 75 72 70 63 63 66 79 86 94 104 95 80 62 73 68 85 102 119 137 150 166 189 184 204 205 175 169
169 160 323 57 65 70 78 86 88 84 91 104 108 113 115 116 104 97 97 97 94 86 84 72 71 62 53 54 58 69 72 72 70 70 59 62 61 59 70 78 78 80 91 76 70 114 83 98 104
334 74 157 102 99 88 84 83 86 94 100 103 110 112 111 110 106 98 96 96 92 88 87 82 78 70 59 52 43 63 66 67 71 67 68 68 70 68 63 67 61 49 82 79 46 66 76 81 81
300 310 24 108 117 105 89 79 108 113 110 107 111 115 115 109 108 106 105 102 99 93 91 92 88 83 73 67 54 52 64 66 67 73 69 70 73 75 72 70 53 32 48 51 45 64 103 108 93
286 280 308 240 143 140 114 85 111 131 124 121 123 120 117 113 110 110 107 105 106 102 95 97 101 91 76 63 60 67 70 73 70 71 77 73 75 73 72 65 54 41 51 65 58 59 80 99 97
286 278 245 245 183 165 145 135 162 150 137 130 132 129 127 120 121 118 115 110 108 106 100 90 93 97 86 63 53 50 67 79 77 72 76 69 71 73 60 67 61 44 45 45 51 49 64 77 89
282 266 246 228 233 204 160 155 174 165 146 142 144 143 141 138 131 124 125 122 114 107 106 98 87 93 92 83 77 66 70 78 79 77 69 61 63 67 54 56 60 56 48 39 48 57 52 63 74
271 265 269 240 234 212 133 141 177 167 160 161 155 151 147 147 143 136 133 131 124 118 113 108 103 94 97 90 80 70 74 78 79 77 68 66 60 58 49 62 46 51 59 48 40 41 43 49 60
263 281 292 244 220 249 157 153 192 204 189 175 163 156 154 150 145 143 144 141 134 126 119 117 115 106 103 86 86 85 81 87 87 92 81 70 63 59 47 53 47 46 60 66 58 45 46 41 63
286 288 281 262 205 247 186 172 201 204 197 181 167 159 153 146 145 146 151 147 138 131 132 136 125 113 102 96 102 117 108 99 94 78 84 74 69 64 61 54 49 49 51 45 45 43 26 29 52
271 277 285 280 257 263 221 250 218 212 181 172 170 161 159 159 155 153 152 148 145 142 141 130 112 109 105 101 97 90 100 81 82 84 80 68 68 68 59 50 47 41 46 42 38 22 24 10 5
269 276 275 276 275 273 246 250 231 201 184 171 181 170 163 159 156 155 155 152 147 144 138 124 116 106 99 98 96 109 103 94 85 89 93 90 84 82 76 67 50 37 41 41 9 36 355 337 314
269 280 286 288 295 287 256 247 237 201 185 180 178 173 158 153 153 154 153 151 151 149 139 131 121 115 108 105 90 91 95 97 91 94 92 92 90 85 70 64 51 52 47 31 25 16 2 349 345
265 273 271 272 272 261 258 238 224 190 179 178 172 165 152 143 145 146 144 145 148 145 139 134 125 123 119 111 100 97 92 95 112 116 120 109 101 93 79 75 46 40 35 25 16 5 359 358 354
251 264 270 267 255 249 242 241 183 170 158 161 160 153 148 144 145 145 142 149 146 143 138 132 131 134 134 127 116 120 129 124 118 124 122 107 97 91 79 69 55 45 30 19 14 358 349 358 350
257 259 260 274 274 281 266 228 130 108 116 138 146 146 145 148 150 147 145 145 147 144 138 138 139 142 143 138 130 132 144 120 104 93 92 90 74 86 94 84 68 49 13 15 5 342 341 5 334
256 264 269 275 276 276 246 180 120 101 104 98 124 142 145 150 151 150 150 152 151 146 143 143 141 145 148 142 138 128 118 97 98 93 72 72 74 90 92 83 65 47 22 21 3 349 357 348 328
244 264 276 276 284 283 247 215 218 183 162 151 144 118 122 131 145 147 149 153 153 151 143 140 138 142 142 142 147 139 128 105 95 88 87 67 52 55 79 76 53 26 8 5 347 340 344 347 340
245 257 264 277 278 285 284 246 190 199 159 140 126 128 136 141 149 142 140 144 149 149 147 145 144 145 149 150 139 123 129 127 123 105 91 88 66 51 53 41 29 28 3 5 350 327 355 349 338
253 259 262 267 273 281 280 213 94 87 86 107 108 131 137 139 143 137 137 142 145 149 148 147 149 154 155 145 136 134 142 144 133 126 120 117 116 91 56 17 0 339 19 22 358 334 359 351 350
Height
1479 1479 1479 1482 1481 1478 1471 1461 1455 1455 1456 1458 1459 1460 1464 1468 1473 1483 1482 1479 1476 1473 1470 1470 1473 1475 1476 1476 1477 1478 1479 1479 1479 1480 1482 1483 1483 1485 1487 1488 1490 1492 1493 1495 1497 1499 1500 1502 1504
1478 1480 1483 1481 1478 1479 1473 1459 1458 1457 1459 1460 1461 1464 1467 1471 1476 1480 1480 1480 1478 1476 1474 1474 1475 1476 1476 1477 1477 1478 1479 1479 1480 1481 1482 1483 1484 1485 1487 1488 1490 1492 1493 1495 1497 1498 1500 1501 1503
1478 1481 1482 1476 1471 1472 1470 1459 1458 1458 1460 1461 1465 1468 1472 1476 1479 1481 1482 1481 1480 1479 1478 1477 1477 1476 1476 1477 1477 1477 1478 1479 1480 1482 1483 1483 1484 1485 1487 1489 1490 1492 1493 1495 1496 1498 1499 1501 1503
1479 1480 1478 1472 1469 1462 1459 1457 1458 1459 1462 1463 1466 1471 1477 1479 1481 1482 1483 1483 1482 1481 1479 1478 1477 1477 1476 1475 1476 1476 1478 1479 1481 1482 1483 1484 1484 1486 1487 1489 1490 1492 1493 1495 1496 1497 1498 1500 1501
1482 1480 1477 1471 1465 1458 1456 1458 1459 1461 1464 1466 1469 1475 1480 1482 1483 1483 1484 1484 1483 1482 1481 1480 1479 1477 1475 1473 1473 1475 1477 1479 1481 1482 1483 1484 1484 1486 1487 1489 1490 1492 1493 1494 1495 1496 1497 1499 1500
1480 1477 1477 1474 1465 1458 1457 1460 1461 1463 1466 1468 1471 1476 1481 1484 1484 1485 1485 1485 1485 1483 1482 1481 1480 1479 1477 1475 1474 1475 1478 1480 1482 1483 1484 1484 1485 1486 1487 1489 1490 1491 1492 1493 1494 1495 1495 1497 1499
1477 1475 1474 1468 1466 1463 1460 1462 1464 1465 1467 1469 1472 1477 1482 1484 1486 1486 1486 1486 1486 1485 1484 1483 1482 1481 1480 1479 1478 1478 1480 1482 1484 1484 1485 1485 1485 1485 1487 1488 1490 1491 1492 1492 1493 1493 1494 1495 1497
1472 1472 1473 1467 1467 1466 1463 1464 1466 1468 1471 1473 1473 1477 1482 1485 1486 1487 1487 1487 1487 1487 1486 1485 1485 1484 1483 1483 1483 1483 1484 1485 1486 1486 1486 1485 1484 1484 1486 1488 1490 1491 1491 1492 1492 1492 1493 1494 1496
1471 1474 1476 1468 1465 1465 1463 1465 1469 1470 1473 1474 1476 1479 1483 1485 1486 1487 1488 1489 1489 1489 1489 1489 1488 1487 1487 1487 1487 1487 1487 1488 1488 1488 1487 1486 1483 1483 1485 1489 1490 1491 1491 1491 1491 1491 1491 1492 1495
1471 1478 1473 1463 1460 1462 1464 1466 1469 1471 1473 1477 1480 1482 1484 1485 1486 1488 1489 1490 1491 1491 1491 1491 1491 1491 1490 1490 1489 1489 1490 1490 1491 1491 1489 1488 1486 1486 1487 1490 1491 1492 1492 1491 1491 1491 1491 1492 1495
1469 1471 1465 1462 1462 1462 1464 1467 1469 1472 1475 1478 1481 1484 1485 1487 1488 1489 1491 1492 1493 1494 1494 1494 1493 1493 1493 1492 1492 1493 1493 1493 1493 1493 1492 1491 1490 1490 1490 1491 1492 1492 1492 1492 1491 1491 1491 1492 1494
1465 1465 1462 1462 1463 1463 1465 1467 1469 1472 1476 1479 1482 1485 1486 1488 1490 1491 1492 1494 1495 1496 1496 1496 1495 1495 1495 1495 1495 1495 1496 1496 1496 1495 1495 1494 1493 1493 1493 1494 1494 1493 1493 1493 1492 1492 1492 1493 1495
1461 1462 1462 1461 1462 1463 1466 1468 1471 1474 1477 1480 1483 1485 1487 1489 1491 1493 1494 1495 1497 1497 1498 1498 1497 1497 1497 1497 1497 1498 1498 1498 1498 1498 1497 1496 1496 1496 1496 1496 1496 1495 1495 1494 1493 1493 1493 1494 1496
1461 1460 1461 1461 1462 1464 1467 1470 1472 1475 1478 1481 1483 1486 1488 1490 1492 1493 1495 1496 1498 1498 1499 1499 1499 1499 1499 1499 1499 1500 1500 1500 1500 1499 1499 1499 1498 1498 1498 1498 1498 1497 1497 1496 1494 1494 1494 1496 1498
1462 1461 1463 1461 1461 1464 1467 1474 1472 1475 1477 1480 1483 1486 1489 1491 1493 1494 1496 1497 1498 1499 1500 1500 1500 1500 1500 1501 1501 1502 1502 1501 1501 1501 1501 1501 1501 1500 1500 1500 1500 1500 1499 1498 1496 1495 1496 1498 1500
1462 1467 1472 1462 1459 1462 1468 1482 1473 1474 1476 1479 1482 1486 1489 1491 1493 1495 1496 1498 1499 1500 1500 1501 1502 1502 1502 1502 1502 1503 1503 1503 1503 1503 1503 1503 1503 1503 1502 1502 1502 1502 1501 1501 1499 1498 1499 1500 1502
1470 1476 1472 1464 1457 1459 1464 1475 1470 1471 1474 1477 1481 1484 1488 1491 1493 1495 1497 1498 1499 1500 1501 1502 1503 1503 1503 1503 1504 1504 1505 1505 1505 1505 1504 1504 1504 1505 1504 1504 1504 1504 1504 1503 1503 1502 1502 1503 1505
1477 1471 1467 1466 1458 1458 1464 1469 1468 1469 1472 1475 1478 1482 1486 1489 1492 1495 1497 1499 1500 1501 1502 1503 1503 1504 1504 1505 1505 1506 1506 1506 1506 1506 1506 1506 1506 1506 1506 1506 1506 1506 1506 1505 1505 1505 1506 1507 1507
1462 1463 1465 1461 1454 1458 1464 1468 1469 1468 1470 1472 1475 1479 1483 1487 1491 1494 1496 1498 1500 1501 1502 1503 1504 1505 1505 1506 1506 1506 1507 1507 1508 1508 1507 1507 1507 1507 1507 1507 1507 1507 1507 1507 1508 1507 1508 1509 1510
1459 1464 1463 1457 1452 1458 1464 1468 1467 1466 1468 1470 1472 1476 1481 1485 1489 1493 1495 1498 1500 1501 1502 1503 1504 1505 1506 1506 1507 1508 1508 1509 1509 1509 1509 1509 1509 1509 1509 1509 1509 1509 1509 1508 1509 1509 1509 1510 1511
1460 1463 1461 1460 1456 1456 1465 1473 1468 1464 1465 1468 1471 1474 1478 1482 1487 1491 1494 1497 1499 1501 1502 1503 1504 1505 1506 1507 1507 1508 1509 1509 1510 1510 1510 1510 1510 1510 1510 1510 1510 1510 1510 1510 1510 1510 1510 1511 1512
1464 1453 1453 1455 1462 1469 1468 1487 1474 1466 1466 1468 1470 1472 1476 1480 1484 1488 1492 1496 1499 1501 1502 1503 1504 1505 1506 1507 1507 1508 1509 1509 1510 1510 1510 1511 1511 1511 1511 1511 1511 1511 1511 1511 1511 1511 1511 1512 1512
1454 1448 1451 1455 1463 1470 1469 1483 1480 1465 1469 1467 1468 1471 1473 1478 1482 1486 1490 1494 1497 1500 1501 1502 1504 1505 1506 1506 1507 1508 1509 1510 1510 1511 1511 1511 1511 1511 1511 1511 1511 1511 1511 1511 1511 1511 1511 1512 1512
1447 1449 1452 1454 1464 1485 1474 1480 1482 1468 1465 1464 1465 1469 1472 1476 1481 1486 1490 1493 1496 1499 1501 1502 1503 1504 1505 1506 1507 1508 1509 1510 1510 1511 1511 1512 1512 1512 1511 1511 1511 1511 1511 1511 1511 1511 1511 1512 1512
1447 1460 1477 1485 1489 1485 1465 1472 1473 1458 1455 1458 1462 1466 1471 1475 1480 1485 1489 1493 1496 1498 1500 1501 1503 1504 1505 1506 1507 1508 1509 1509 1510 1511 1511 1512 1512 1512 1512 1512 1511 1511 1511 1511 1511 1511 1511 1511 1511
1449 1455 1478 1492 1492 1482 1469 1475 1466 1455 1455 1457 1461 1465 1469 1474 1479 1483 1488 1491 1495 1497 1500 1501 1502 1504 1505 1506 1507 1507 1508 1510 1510 1511 1511 1512 1512 1512 1512 1512 1512 1511 1511 1511 1510 1510 1510 1510 1511
1451 1452 1448 1462 1470 1480 1476 1471 1464 1458 1458 1459 1461 1464 1468 1473 1477 1482 1486 1490 1494 1497 1499 1501 1502 1503 1505 1506 1507 1507 1509 1510 1510 1511 1511 1512 1512 1512 1511 1511 1511 1511 1510 1510 1510 1510 1509 1509 1510
1443 1445 1451 1463 1481 1489 1481 1478 1478 1466 1461 1461 1463 1465 1469 1472 1477 1481 1485 1488 1492 1496 1498 1500 1501 1503 1504 1506 1507 1508 1509 1510 1510 1511 1511 1511 1511 1511 1511 1511 1510 1510 1510 1509 1509 1508 1508 1509 1509
1448 1450 1452 1456 1460 1478 1490 1487 1461 1460 1459 1460 1463 1468 1469 1473 1477 1480 1484 1487 1491 1494 1497 1499 1500 1502 1504 1505 1506 1507 1508 1509 1510 1510 1510 1510 1510 1510 1510 1510 1510 1509 1509 1508 1508 1508 1507 1507 1507
1444 1449 1453 1467 1468 1463 1472 1482 1454 1456 1458 1459 1463 1467 1469 1473 1477 1480 1483 1486 1490 1493 1496 1498 1500 1501 1503 1504 1505 1506 1507 1508 1509 1509 1509 1510 1510 1509 1509 1509 1509 1509 1508 1507 1507 1507 1506 1506 1505